Location: Madden
(51.3728°N, 114.3297°W)
Time: 07:25:44
(UTC+00:00)

RS-44 - Visible Passes

Search period start: 03 December 2023 00:00
Search period end: 13 December 2023 00:00
Orbit: 1174 x 1511 km, 82.5° (Epoch: 02 December)

Date Brightness Start Highest point End Pass type
(mag) Time Alt. Az. Time Alt. Az. Time Alt. Az.
03 Dec ? 04:41:44 10° N 04:42:06 11° N 04:42:06 11° N visible
04 Dec ? 05:05:23 10° N 05:05:41 11° N 05:05:41 11° N visible
05 Dec ? 03:36:23 10° N 03:36:42 11° N 03:36:42 11° N visible
05 Dec ? 05:29:09 10° N 05:29:17 11° N 05:29:17 11° N visible
06 Dec ? 03:59:48 10° N 04:00:17 12° N 04:00:17 12° N visible
07 Dec ? 04:23:22 10° N 04:23:54 12° N 04:23:54 12° N visible
08 Dec ? 02:54:46 10° NNE 02:54:56 10° NNE 02:54:56 10° NNE visible
08 Dec ? 04:47:03 10° N 04:47:31 12° N 04:47:31 12° N visible
09 Dec ? 03:17:58 10° N 03:18:33 12° N 03:18:33 12° N visible
09 Dec ? 05:10:50 10° NNW 05:11:09 11° NNW 05:11:09 11° NNW visible
10 Dec ? 03:41:25 10° N 03:42:11 13° N 03:42:11 13° N visible
10 Dec ? 05:34:43 10° NNW 05:34:46 10° NNW 05:34:46 10° NNW visible
11 Dec ? 04:05:00 10° N 04:05:50 14° N 04:05:50 14° N visible
12 Dec ? 02:36:16 10° N 02:36:54 12° NNE 02:36:54 12° NNE visible
12 Dec ? 04:28:42 10° N 04:29:29 14° N 04:29:29 14° N visible
